RH
89 87 89 88 72 69 59 53 51 53 57 54 49 51 51 45 46 47 46 41 40 44 50 50 43 32 32 28 27 23 29 30
87 89 91 93 82 68 62 53 56 60 58 53 54 57 49 50 50 47 42 41 49 52 50 43 33 29 28 27 24 24 28 28
92 94 99 84 83 81 72 63 60 62 61 62 62 55 51 52 46 42 43 50 52 54 48 41 29 28 27 26 26 27 28 28
92 96 97 93 91 91 66 67 66 64 66 68 60 57 58 50 44 49 49 53 56 49 43 30 29 29 28 26 27 25 25 26
96 92 93 93 83 75 76 74 68 72 74 62 61 57 52 54 51 52 53 59 53 46 33 30 30 29 27 26 28 27 26 26
90 96 88 84 81 84 82 80 82 75 62 59 58 54 52 50 52 52 58 52 45 37 31 29 28 29 28 27 25 25 24 25
93 90 87 89 93 92 88 81 72 60 58 57 55 51 49 50 54 57 49 45 40 32 30 29 29 27 26 24 23 21 22 24
89 91 90 88 87 80 70 63 56 53 54 51 50 52 52 49 51 47 45 40 34 31 32 32 28 25 23 24 23 23 26 28
65 69 67 65 64 53 43 44 49 50 55 57 59 57 52 45 44 43 39 35 31 30 32 29 30 27 27 28 30 32 36 37
55 62 72 70 61 47 40 46 51 55 58 64 64 60 47 44 42 39 36 34 30 31 32 34 35 36 37 39 40 42 43 44
47 47 50 54 48 40 42 48 56 63 70 67 62 52 45 43 39 37 35 32 30 32 33 38 40 45 49 47 49 53 51 48
51 52 51 51 51 50 51 55 69 72 69 63 52 47 46 45 41 39 36 33 32 37 40 45 49 51 54 55 58 57 56 54
54 56 56 53 52 49 52 61 61 64 62 59 52 49 48 47 42 42 38 39 45 46 50 52 53 58 64 65 61 64 62 52
55 56 58 59 56 51 53 57 62 60 64 63 57 52 51 48 47 52 52 53 53 55 54 56 60 65 73 76 79 71 58 57
49 53 58 59 58 57 60 62 63 66 73 69 73 62 55 54 55 56 56 59 60 61 58 58 68 73 80 87 79 65 59 54
41 44 51 55 58 64 61 59 63 68 77 79 73 67 65 60 60 62 60 62 63 63 67 74 80 79 74 74 68 66 63 57
47 48 50 53 60 60 64 69 69 67 66 78 74 71 72 76 76 70 66 66 68 73 75 82 88 77 75 71 64 64 61 62
56 56 61 62 63 64 68 76 78 77 73 72 69 74 80 82 82 85 75 76 78 82 82 90 91 87 79 70 66 67 65 62
62 67 71 72 70 69 73 69 76 83 82 85 88 90 89 89 88 90 89 90 89 84 82 95 91 84 76 70 73 70 68 66
66 65 71 72 68 70 72 71 76 80 78 86 94 93 92 92 91 94 93 91 88 80 94 93 85 76 73 81 76 72 73 73